Baltimore, MD

6:25 PM EST on January 20, 2018 (GMT -0500)
Baltimore-Washington International

Weather History for KBWI - November, 2011

Change the Weather History Date:

Friday, November 11, 2011

  Actual Average Record
Temperature  
Mean Temperature 43 °F 48 °F  
Max Temperature 50 °F 58 °F 77 °F (1949)
Min Temperature 36 °F 38 °F 21 °F (1973)
Degree Days  
Heating Degree Days 22 17  
Month to date heating degree days 180 170  
Since 1 July heating degree days 468 517  
Cooling Degree Days 0 0  
Month to date cooling degree days 0 0  
Year to date cooling degree days 1558 1163  
Moisture  
Dew Point 26 °F    
Average Humidity 54    
Maximum Humidity 70    
Minimum Humidity 38    
Precipitation  
Precipitation 0.00 in 0.10 in 1.34 in (1987)
Month to date precipitation 0.12 1.21  
Year to date precipitation 49.69 36.42  
Snow  
Snow 0.00 in 0.00 in 6.00 in (1987)
Month to date snowfall 0.0 0.1  
Since 1 July snowfall T 0.1  
Snow Depth 0.00 in    
Sea Level Pressure  
Sea Level Pressure 29.93 in    
Wind  
Wind Speed 13 mph (West)    
Max Wind Speed 29 mph    
Max Gust Speed 39 mph    
Visibility 10 miles    
Events      
T = Trace of Precipitation, MM = Missing Value Source: NWS Daily Summary

Daily Weather History Graph

Daily Weather History Graph

Search for Another Location

Airport or City:

Trip Planner

Search our weather history database for the weather conditions in past years. The results will help you decide how hot, cold, wet, or windy it might be!

Date:

Astronomy

Nov. 11, 2011 Rise Set
Actual Time 6:45 AM EST 4:55 PM EST
Civil Twilight 6:16 AM EST 5:24 PM EST
Nautical Twilight 5:44 AM EST 5:56 PM EST
Astronomical Twilight 5:13 AM EST 6:27 PM EST
Moon 5:23 PM EST (11/11) 7:30 AM EST (11/11)
Length of Visible Light 11h 07m
Length of Day
10h 10m
Full, 99% of the Moon is Illuminated
Nov 11
Full
Nov 18
Last Quarter
Nov 25
New
Dec 2
First Quarter
Dec 10
Full

Hourly Weather History & Observations

Time (EST) Temp. Windchill Dew Point Humidity Pressure Visibility Wind Dir Wind Speed Gust Speed Precip Events Conditions
12:54 AM 42.1 °F 35.7 °F 30.9 °F 65% 29.78 in 10.0 mi West 11.5 mph - N/A   Partly Cloudy
1:54 AM 42.1 °F 35.2 °F 30.9 °F 65% 29.79 in 10.0 mi WNW 12.7 mph - N/A   Partly Cloudy
2:54 AM 41.0 °F 32.8 °F 30.9 °F 67% 29.81 in 10.0 mi West 16.1 mph 23.0 mph N/A   Scattered Clouds
3:54 AM 39.9 °F 32.9 °F 30.9 °F 70% 29.81 in 10.0 mi West 11.5 mph - N/A   Scattered Clouds
4:54 AM 39.0 °F 31.8 °F 28.0 °F 65% 29.82 in 10.0 mi West 11.5 mph 20.7 mph N/A   Partly Cloudy
5:54 AM 39.2 °F 31.2 °F 24.8 °F 56% 29.82 in 10.0 mi West 13.8 mph 24.2 mph N/A   Scattered Clouds
6:54 AM 37.9 °F 29.6 °F 25.0 °F 60% 29.84 in 10.0 mi West 13.8 mph - N/A   Scattered Clouds
7:54 AM 41.0 °F 33.5 °F 23.0 °F 49% 29.87 in 10.0 mi WNW 13.8 mph 27.6 mph N/A   Scattered Clouds
8:54 AM 43.0 °F 35.1 °F 25.0 °F 49% 29.88 in 10.0 mi WNW 17.3 mph 35.7 mph N/A   Partly Cloudy
9:54 AM 45.0 °F 36.9 °F 25.0 °F 46% 29.90 in 10.0 mi West 20.7 mph 35.7 mph N/A   Partly Cloudy
10:54 AM 46.9 °F - 25.0 °F 42% 29.91 in 10.0 mi WNW 16.1 mph 25.3 mph N/A   Scattered Clouds
11:54 AM 46.9 °F - 26.1 °F 44% 29.90 in 10.0 mi WNW 16.1 mph 35.7 mph N/A   Scattered Clouds
12:54 PM 48.0 °F - 25.0 °F 41% 29.91 in 10.0 mi WNW 17.3 mph 28.8 mph N/A   Scattered Clouds
1:54 PM 48.0 °F - 25.0 °F 41% 29.91 in 10.0 mi WNW 20.7 mph 27.6 mph N/A   Scattered Clouds
2:54 PM 48.0 °F - 24.1 °F 39% 29.95 in 10.0 mi WNW 11.5 mph 31.1 mph N/A   Mostly Cloudy
3:54 PM 46.9 °F - 23.0 °F 39% 29.96 in 10.0 mi West 19.6 mph 27.6 mph N/A   Mostly Cloudy
4:54 PM 46.0 °F 39.9 °F 23.0 °F 40% 29.99 in 10.0 mi West 13.8 mph 24.2 mph N/A   Partly Cloudy
5:54 PM 43.0 °F 41.3 °F 24.1 °F 47% 30.01 in 10.0 mi WSW 3.5 mph - N/A   Partly Cloudy
6:54 PM 41.0 °F 36.4 °F 25.0 °F 53% 30.04 in 10.0 mi WSW 6.9 mph - N/A   Partly Cloudy
7:54 PM 39.9 °F 35.8 °F 26.1 °F 58% 30.06 in 10.0 mi WSW 5.8 mph - N/A   Partly Cloudy
8:54 PM 39.9 °F 35.8 °F 25.0 °F 55% 30.09 in 10.0 mi WSW 5.8 mph - N/A   Partly Cloudy
9:54 PM 39.0 °F 35.7 °F 25.0 °F 57% 30.11 in 10.0 mi SSW 4.6 mph - N/A   Mostly Cloudy
10:54 PM 37.9 °F 33.5 °F 25.0 °F 60% 30.11 in 10.0 mi WSW 5.8 mph - N/A   Mostly Cloudy
11:54 PM 37.0 °F - 25.0 °F 62% 30.12 in 10.0 mi Calm Calm - N/A   Scattered Clouds